This demonstration page uses our WeatherBlox Daily Observations layout. Learn more.

Left ArrowRight Arrow

34.74481, -87.66753

Hourly Observations for March 16, 2021

Temp ( °F °C ) Dew Point ( °F °C ) Humidity (%) Winds ( mph kmh ) Pressure ( in mb ) Visibility ( mi km ) Precip ( " mm )
12:53 am 00:53 Mostly Cloudy 64 17.8 58 14.4 81 81 SE 9 15 29.91 1013 9 14 0.00 0.00
1:53 am 01:53 Mostly Cloudy 65 18.3 60 15.6 84 84 SSE 9 15 29.90 1012 9 14 0.00 0.00
2:11 am 02:11 Mostly Cloudy with Nearby Thunderstorms 66 18.9 61 16.1 84 84 SSE 7 11 29.90 1013 10 16 0.00 0.00
2:26 am 02:26 Partly Cloudy 66 18.9 60 15.6 81 81 S 8 13 29.89 1012 9 14 0.00 0.00
2:53 am 02:53 Clear 67 19.4 59 15 76 76 WSW 8 13 29.88 1012 10 16 0.00 0.00
3:25 am 03:25 Mostly Cloudy 66 18.9 60 15.6 81 81 NNE 3 6 29.89 1012 10 16 0.00 0.00
3:53 am 03:53 Cloudy 65 18.3 60 15.6 84 84 Calm 29.88 1012 10 16 0.00 0.00
4:06 am 04:06 Cloudy 65 18.3 59 15 81 81 Calm 29.89 1012 10 16 0.00 0.00
4:53 am 04:53 Mostly Cloudy 65 18.3 59 15 81 81 Calm 29.87 1012 8 13 0.00 0.00
5:53 am 05:53 Cloudy 65 18.3 59 15 81 81 SSW 6 9 29.89 1012 10 16 0.03 0.76
6:32 am 06:32 Cloudy 64 17.8 59 15 84 84 S 5 7 29.91 1013 10 16 0.00 0.00
6:41 am 06:41 Cloudy 64 17.8 59 15 84 84 SSE 7 11 29.91 1013 10 16 0.00 0.00
6:53 am 06:53 Cloudy 65 18.3 59 15 81 81 S 7 11 29.91 1013 10 16 0.00 0.00
7:53 am 07:53 Cloudy 64 17.8 58 14.4 81 81 SE 5 7 29.91 1013 10 16 0.00 0.00
8:34 am 08:34 Cloudy 65 18.3 59 15 81 81 SE 6 9 29.91 1013 10 16 0.00 0.00
8:53 am 08:53 Cloudy 66 18.9 60 15.6 81 81 SE 3 6 29.91 1013 10 16 0.00 0.00
9:53 am 09:53 Cloudy 69 20.6 61 16.1 76 76 SSW 3 6 29.93 1014 10 16 0.00 0.00
10:02 am 10:02 Mostly Cloudy 69 20.6 61 16.1 76 76 S 7 11 29.94 1014 10 16 0.00 0.00
10:41 am 10:41 Mostly Cloudy 71 21.7 62 16.7 73 73 SW 5 7 29.92 1013 10 16 0.00 0.00
10:53 am 10:53 Mostly Cloudy 72 22.2 63 17.2 73 73 SSW 5 7 29.92 1013 10 16 0.00 0.00
11:00 am 11:00 Mostly Cloudy 72 22.2 62 16.7 71 71 SSW 6 9 29.92 1013 10 16 0.00 0.00
11:11 am 11:11 Cloudy 72 22.2 62 16.7 71 71 S 5 7 29.92 1013 10 16 0.00 0.00
11:50 am 11:50 Partly Cloudy 73 23 63 17 69 69 S 5 7 29.91 1013 10 16 0.00 0.00
11:53 am 11:53 Partly Cloudy 75 23.9 63 17.2 66 66 SSW 6 9 29.92 1013 10 16 0.00 0.00
12:13 pm 12:13 Mostly Cloudy 75 23.9 62 16.7 64 64 VRB 6 9 29.91 1013 10 16 0.00 0.00
12:20 pm 12:20 Mostly Cloudy 75 23.9 62 16.7 64 64 SSW 7 11 29.91 1013 10 16 0.00 0.00
12:51 pm 12:51 Mostly Cloudy 75 24 63 17 65 65 S 7 11 29.90 1013 10 16 0.00 0.00
12:53 pm 12:53 Mostly Cloudy 76 24.4 62 16.7 62 62 VRB 5 7 29.90 1013 10 16 0.00 0.00
1:25 pm 13:25 Mostly Cloudy 76 24.4 60 15.6 58 58 SSE 3 6 29.89 1012 10 16 0.00 0.00
1:53 pm 13:53 Partly Cloudy 77 25 60 15.6 56 56 WSW 3 6 29.88 1012 10 16 0.00 0.00
2:53 pm 14:53 Mostly Cloudy 77 25 60 15.6 56 56 Calm 29.87 1012 10 16 0.00 0.00
3:53 pm 15:53 Mostly Sunny 80 26.7 58 14.4 47 47 Calm 29.86 1011 10 16 0.00 0.00
4:53 pm 16:53 Sunny 80 26.7 53 11.7 39 39 WNW 6 9 29.86 1011 10 16 0.00 0.00
5:53 pm 17:53 Sunny 76 24.4 62 16.7 62 62 ESE 7 11 29.87 1012 10 16 0.00 0.00
6:53 pm 18:53 Sunny 71 21.7 62 16.7 73 73 E 5 7 29.89 1012 10 16 0.00 0.00
7:53 pm 19:53 Clear 68 20 60 15.6 76 76 E 9 15 29.91 1013 10 16 0.00 0.00
8:53 pm 20:53 Clear 66 18.9 60 15.6 81 81 SE 7 11 29.92 1013 10 16 0.00 0.00
9:53 pm 21:53 Clear 66 18.9 60 15.6 81 81 ESE 6 9 29.93 1014 10 16 0.00 0.00
10:53 pm 22:53 Clear 65 18.3 60 15.6 84 84 SE 6 9 29.92 1013 9 14 0.00 0.00
11:36 pm 23:36 Partly Cloudy 65 18.3 60 15.6 84 84 SE 9 15 29.94 1014 9 14 0.00 0.00
11:46 pm 23:46 Mostly Cloudy 66 18.9 61 16.1 84 84 SE 8 13 29.94 1014 9 14 0.00 0.00
11:53 pm 23:53 Mostly Cloudy 66 18.9 61 16.1 84 84 SE 6 9 29.93 1014 9 14 0.00 0.00

Powered by AerisWeather